Погода в Октябрьском

Россия / Кировская область     58°51′24″N   50°26′06″E
темп.,
°C
ветер,
м/с
пор.,
м/с
влажн.,
%
обл.,
%
осадки,
мм/ч
давл.,
гПа
погр.,
м
22 января, сб
сб2200:00−12ююв41192100 0.0 1020315
03:00−13ююв41294100 0.0 1020277
06:00−13юв41194100 0.0 1021286
09:00−13юв41195100 0.0 1022306
12:00−10юв41091100 0.0 1023349
15:00−10юв4109278 0.0 1024360
18:00−11юв31193100 0.1 1025354
21:00−10юв41194100 0.5 1025379
23 января, вс
вс2300:00−10юв3994100 0.1 1026292
03:00−9юв41194100 0.3 1026348
06:00−6ююв41295100 1.1 1026623
09:00−6ююв41092100 1.8 1027620
12:00−6ю4992100 0.1 1029530
15:00−6ю3894100 0.2 1030390
18:00−8ю2797100 0.1 1032176
21:00−11ююз2498100 0.1 103383
24 января, пн
пн2400:00−13ююз2199100 0.1 103536
03:00−15юз25100100 0.1 103674
06:00−15зюз2699100 0.0 1037131
09:00−16юз269990 0.1 1038107
12:00−11зюз369388 0.0 1038196
15:00−12юз259684 0.0 1038130
18:00−14юз2997100 0.0 1038168
21:00−15юз31098100 0.0 1037177
25 января, вт
вт2500:00−14юз3119691 0.0 1036230
03:00−15юз3119773 0.0 1035205
06:00−16юз3109884 0.0 1034180
09:00−16юз3910098 0.0 1032170
12:00−10юз3695100 0.0 1031252
15:00−9ю379574 0.1 1029251
18:00−12ю311915 0.0 1028227
21:00−14ю3109514 0.0 1027198
26 января, ср
ср2600:00−15ю399530 0.0 1026173
03:00−17ю3896100 0.0 1026150
06:00−17ю289676 0.0 1025151
09:00−16ю299794 0.0 1025192
12:00−11ююз3592100 0.1 1025282
15:00−10ю369580 0.3 1025266
18:00−12ю3896100 0.1 1026213
21:00−13ююв279789 0.1 1025162